�������l�o���
Date,Time,MP-1(��Sv/h),MP-2(��Sv/h),MP-3(��Sv/h),MP-4(��Sv/h),MP-5(��Sv/h),MP-6(��Sv/h),MP-7(��Sv/h),����,����(m/s),���J
2018/01/20,00:00,0.334,0.203,0.335,0.315,0.302,0.167,0.100,�k,2.4,��
2018/01/20,00:10,0.336,0.203,0.334,0.315,0.302,0.167,0.100,�k,2.4,��
2018/01/20,00:20,0.334,0.203,0.335,0.316,0.302,0.167,0.099,�k�k��,1.1,��
2018/01/20,00:30,0.334,0.203,0.334,0.317,0.302,0.167,0.100,�k,1.7,��
2018/01/20,00:40,0.335,0.203,0.334,0.315,0.302,0.167,0.100,�k,3.5,��
2018/01/20,00:50,0.335,0.203,0.335,0.315,0.301,0.167,0.101,�k,3.7,��
2018/01/20,01:00,0.335,0.204,0.335,0.316,0.304,0.167,0.100,�k,3.7,��
2018/01/20,01:10,0.334,0.204,0.334,0.316,0.305,0.167,0.101,�k,4.3,��
2018/01/20,01:20,0.335,0.203,0.335,0.315,0.302,0.167,0.100,�k,5.0,��
2018/01/20,01:30,0.335,0.203,0.336,0.316,0.302,0.167,0.101,�k,4.1,��
2018/01/20,01:40,0.337,0.204,0.336,0.316,0.302,0.168,0.100,�k,4.6,��
2018/01/20,01:50,0.335,0.202,0.335,0.316,0.303,0.167,0.100,�k,4.5,��
2018/01/20,02:00,0.335,0.204,0.336,0.315,0.302,0.167,0.100,�k,4.9,��
2018/01/20,02:10,0.335,0.204,0.335,0.315,0.301,0.167,0.101,�k,4.6,��
2018/01/20,02:20,0.334,0.203,0.334,0.316,0.303,0.166,0.101,�k,4.5,��
2018/01/20,02:30,0.336,0.202,0.336,0.316,0.303,0.167,0.100,�k,4.5,��
2018/01/20,02:40,0.335,0.204,0.334,0.315,0.303,0.167,0.101,�k,4.5,��
2018/01/20,02:50,0.335,0.203,0.335,0.315,0.302,0.166,0.101,�k,4.5,��
2018/01/20,03:00,0.334,0.204,0.335,0.316,0.301,0.167,0.101,�k,4.4,��
2018/01/20,03:10,0.335,0.203,0.335,0.316,0.304,0.167,0.101,�k,3.3,��
2018/01/20,03:20,0.337,0.204,0.336,0.316,0.302,0.167,0.100,�k,3.1,��
2018/01/20,03:30,0.334,0.204,0.336,0.316,0.302,0.166,0.100,�k��,1.3,��
2018/01/20,03:40,0.335,0.204,0.335,0.315,0.304,0.166,0.101,�k�k��,4.2,��
2018/01/20,03:50,0.336,0.203,0.335,0.316,0.302,0.167,0.100,�k�k��,6.3,��
2018/01/20,04:00,0.335,0.203,0.336,0.316,0.303,0.167,0.101,�k,6.4,��
2018/01/20,04:10,0.335,0.204,0.334,0.314,0.302,0.167,0.101,�k,6.3,��
2018/01/20,04:20,0.335,0.204,0.336,0.314,0.303,0.167,0.100,�k,6.5,��
2018/01/20,04:30,0.335,0.204,0.336,0.315,0.304,0.166,0.100,�k�k��,5.3,��
2018/01/20,04:40,0.336,0.204,0.336,0.314,0.303,0.168,0.100,�k�k��,6.1,��
2018/01/20,04:50,0.336,0.203,0.335,0.316,0.302,0.167,0.100,�k�k��,4.2,��
2018/01/20,05:00,0.336,0.203,0.336,0.316,0.303,0.167,0.101,�k�k��,3.9,��
2018/01/20,05:10,0.336,0.203,0.333,0.316,0.304,0.167,0.100,�k��,2.2,��
2018/01/20,05:20,0.337,0.202,0.335,0.315,0.304,0.167,0.101,�k�k��,1.8,��
2018/01/20,05:30,0.335,0.202,0.334,0.316,0.303,0.167,0.101,�k,1.7,��
2018/01/20,05:40,0.336,0.203,0.335,0.315,0.302,0.167,0.101,-,CALM,��
2018/01/20,05:50,0.335,0.203,0.335,0.315,0.303,0.167,0.101,-,CALM,��
2018/01/20,06:00,0.334,0.204,0.335,0.315,0.303,0.167,0.100,�k�k��,1.3,��
2018/01/20,06:10,0.335,0.203,0.334,0.316,0.304,0.167,0.100,-,CALM,��
2018/01/20,06:20,0.334,0.203,0.335,0.316,0.303,0.168,0.100,-,CALM,��
2018/01/20,06:30,0.334,0.204,0.335,0.315,0.303,0.168,0.101,�k�k��,0.9,��
2018/01/20,06:40,0.334,0.204,0.335,0.316,0.303,0.167,0.101,�k��,0.8,��
2018/01/20,06:50,0.336,0.204,0.334,0.316,0.303,0.168,0.101,�k�k��,1.1,��
2018/01/20,07:00,0.334,0.203,0.335,0.315,0.304,0.167,0.100,�k��,1.1,��
2018/01/20,07:10,0.336,0.204,0.335,0.315,0.303,0.167,0.100,���k��,1.0,��
2018/01/20,07:20,0.335,0.203,0.334,0.316,0.301,0.167,0.100,���k��,0.6,��
2018/01/20,07:30,0.336,0.204,0.336,0.316,0.302,0.167,0.101,�k�k��,0.6,��
2018/01/20,07:40,0.335,0.203,0.335,0.316,0.303,0.167,0.100,-,CALM,��
2018/01/20,07:50,0.335,0.203,0.335,0.315,0.302,0.166,0.100,-,CALM,��
2018/01/20,08:00,0.335,0.203,0.335,0.315,0.302,0.167,0.099,-,CALM,��
2018/01/20,08:10,0.335,0.203,0.336,0.317,0.302,0.167,0.100,-,CALM,��
2018/01/20,08:20,0.335,0.204,0.335,0.315,0.302,0.168,0.100,-,CALM,��
2018/01/20,08:30,0.333,0.202,0.335,0.315,0.302,0.167,0.101,��,0.7,��
2018/01/20,08:40,0.334,0.203,0.336,0.314,0.301,0.167,0.101,��쓌,0.8,��
2018/01/20,08:50,0.334,0.203,0.335,0.315,0.302,0.167,0.100,�쓌,1.0,��
2018/01/20,09:00,0.336,0.204,0.335,0.316,0.303,0.166,0.099,���쓌,0.7,��
2018/01/20,09:10,0.335,0.203,0.335,0.314,0.303,0.166,0.099,��,1.3,��
2018/01/20,09:20,0.335,0.202,0.335,0.314,0.303,0.167,0.099,-,CALM,��
2018/01/20,09:30,0.335,0.204,0.336,0.315,0.301,0.167,0.100,���k��,1.2,��
2018/01/20,09:40,0.335,0.203,0.334,0.314,0.303,0.167,0.099,��,1.1,��
2018/01/20,09:50,0.337,0.203,0.335,0.314,0.303,0.168,0.100,���쓌,1.5,��
2018/01/20,10:00,0.335,0.202,0.335,0.315,0.302,0.167,0.100,���쓌,1.3,��
2018/01/20,10:10,0.335,0.204,0.334,0.314,0.304,0.168,0.100,�쓌,1.8,��
2018/01/20,10:20,0.335,0.203,0.334,0.315,0.302,0.168,0.101,�쓌,1.7,��
2018/01/20,10:30,0.333,0.202,0.336,0.314,0.304,0.167,0.101,���쓌,2.2,��
2018/01/20,10:40,0.333,0.204,0.334,0.315,0.302,0.167,0.100,��쓌,2.3,��
2018/01/20,10:50,0.334,0.203,0.335,0.317,0.303,0.168,0.101,��쓌,3.4,��
2018/01/20,11:00,0.333,0.202,0.334,0.315,0.304,0.169,0.100,��쓌,3.0,��
2018/01/20,11:10,0.336,0.202,0.335,0.315,0.302,0.167,0.099,��쓌,3.0,��
2018/01/20,11:20,0.333,0.202,0.334,0.316,0.305,0.167,0.100,��쓌,2.7,��
2018/01/20,11:30,0.333,0.202,0.334,0.313,0.302,0.167,0.100,��쓌,3.6,��
2018/01/20,11:40,0.333,0.203,0.335,0.315,0.303,0.167,0.099,��쓌,3.2,��
2018/01/20,11:50,0.333,0.203,0.333,0.315,0.303,0.167,0.100,��쓌,4.3,��
2018/01/20,12:00,0.334,0.204,0.334,0.313,0.301,0.167,0.100,��쓌,4.4,��
2018/01/20,12:10,0.333,0.203,0.333,0.316,0.304,0.168,0.100,��쓌,4.8,��
2018/01/20,12:20,0.334,0.203,0.334,0.315,0.301,0.167,0.099,��쓌,5.4,��
2018/01/20,12:30,0.332,0.202,0.332,0.315,0.303,0.166,0.100,��쓌,5.5,��
2018/01/20,12:40,0.335,0.203,0.335,0.315,0.304,0.166,0.100,��쓌,6.0,��
2018/01/20,12:50,0.334,0.203,0.333,0.315,0.302,0.167,0.100,��,7.0,��
2018/01/20,13:00,0.334,0.203,0.334,0.316,0.304,0.167,0.099,��,8.1,��
2018/01/20,13:10,0.333,0.203,0.335,0.316,0.302,0.167,0.100,��,7.8,��
2018/01/20,13:20,0.335,0.204,0.333,0.316,0.304,0.167,0.100,��,9.2,��
2018/01/20,13:30,0.335,0.203,0.334,0.315,0.305,0.167,0.100,��,9.3,��
2018/01/20,13:40,0.335,0.203,0.333,0.316,0.304,0.168,0.100,��,8.7,��
2018/01/20,13:50,0.335,0.203,0.334,0.314,0.304,0.168,0.099,��,9.5,��
2018/01/20,14:00,0.334,0.203,0.335,0.315,0.304,0.168,0.099,��,10.0,��
2018/01/20,14:10,0.333,0.203,0.333,0.316,0.301,0.168,0.100,��,10.6,��
2018/01/20,14:20,0.336,0.203,0.335,0.316,0.303,0.167,0.100,��,8.8,��
2018/01/20,14:30,0.334,0.203,0.335,0.316,0.303,0.166,0.100,��,8.7,��
2018/01/20,14:40,0.335,0.203,0.335,0.318,0.303,0.166,0.100,��,9.5,��
2018/01/20,14:50,0.336,0.203,0.335,0.317,0.302,0.167,0.099,��쐼,9.5,��
2018/01/20,15:00,0.334,0.203,0.334,0.317,0.304,0.167,0.100,��,9.5,��
2018/01/20,15:10,0.333,0.204,0.335,0.315,0.303,0.168,0.100,��,8.2,��
2018/01/20,15:20,0.336,0.204,0.333,0.315,0.305,0.167,0.100,��,9.6,��
2018/01/20,15:30,0.335,0.202,0.337,0.316,0.303,0.167,0.100,��,9.8,��
2018/01/20,15:40,0.336,0.203,0.333,0.316,0.303,0.168,0.100,��,9.2,��
2018/01/20,15:50,0.335,0.203,0.334,0.317,0.304,0.167,0.100,��,9.2,��
2018/01/20,16:00,0.335,0.202,0.335,0.315,0.305,0.168,0.099,��,7.5,��
2018/01/20,16:10,0.335,0.203,0.336,0.316,0.305,0.167,0.100,��쐼,8.5,��
2018/01/20,16:20,0.333,0.203,0.333,0.317,0.304,0.167,0.100,��쐼,8.1,��
2018/01/20,16:30,0.336,0.204,0.334,0.316,0.304,0.168,0.100,��쐼,8.4,��
2018/01/20,16:40,0.335,0.203,0.335,0.316,0.303,0.167,0.099,��쐼,9.3,��
2018/01/20,16:50,0.334,0.203,0.335,0.316,0.304,0.167,0.101,��쐼,8.1,��
2018/01/20,17:00,0.336,0.204,0.334,0.316,0.303,0.167,0.100,��쐼,7.1,��
2018/01/20,17:10,0.336,0.204,0.334,0.317,0.304,0.167,0.100,��쐼,4.4,��
2018/01/20,17:20,0.334,0.204,0.335,0.316,0.302,0.168,0.100,�쐼,2.6,��
2018/01/20,17:30,0.335,0.204,0.336,0.318,0.304,0.167,0.100,��쐼,3.4,��
2018/01/20,17:40,0.334,0.204,0.333,0.316,0.302,0.168,0.101,�쐼,3.0,��
2018/01/20,17:50,0.335,0.203,0.335,0.315,0.303,0.168,0.100,���쐼,1.7,��
2018/01/20,18:00,0.334,0.204,0.334,0.316,0.304,0.167,0.100,�k��,1.6,��
2018/01/20,18:10,0.335,0.203,0.335,0.317,0.304,0.167,0.100,�k��,3.8,��
2018/01/20,18:20,0.336,0.204,0.335,0.316,0.302,0.169,0.101,�k��,6.6,��
2018/01/20,18:30,0.335,0.205,0.336,0.316,0.303,0.168,0.101,�k��,5.9,��
2018/01/20,18:40,0.336,0.204,0.335,0.318,0.303,0.168,0.100,���k��,6.5,��
2018/01/20,18:50,0.335,0.204,0.335,0.317,0.302,0.168,0.101,���k��,7.0,��
2018/01/20,19:00,0.336,0.204,0.334,0.315,0.302,0.167,0.101,���k��,8.6,��
2018/01/20,19:10,0.334,0.202,0.337,0.316,0.303,0.168,0.101,���k��,8.4,��
2018/01/20,19:20,0.336,0.204,0.334,0.317,0.303,0.167,0.100,���k��,8.4,��
2018/01/20,19:30,0.336,0.203,0.334,0.317,0.303,0.168,0.100,���k��,8.3,��
2018/01/20,19:40,0.336,0.203,0.334,0.316,0.302,0.167,0.100,��,9.0,��
2018/01/20,19:50,0.334,0.203,0.336,0.317,0.303,0.168,0.101,���k��,8.1,��
2018/01/20,20:00,0.336,0.203,0.334,0.316,0.303,0.168,0.100,���k��,10.4,��
2018/01/20,20:10,0.337,0.203,0.335,0.316,0.303,0.167,0.099,���k��,9.2,��
2018/01/20,20:20,0.334,0.203,0.335,0.316,0.304,0.167,0.099,���k��,9.5,��
2018/01/20,20:30,0.335,0.203,0.335,0.315,0.305,0.167,0.100,���k��,7.5,��
2018/01/20,20:40,0.335,0.204,0.336,0.317,0.304,0.168,0.099,�k��,6.0,��
2018/01/20,20:50,0.335,0.204,0.335,0.315,0.302,0.166,0.101,���k��,5.4,��
2018/01/20,21:00,0.336,0.204,0.336,0.315,0.306,0.167,0.100,���k��,5.5,��
2018/01/20,21:10,0.336,0.204,0.336,0.316,0.305,0.168,0.100,�k��,7.3,��
2018/01/20,21:20,0.336,0.204,0.335,0.318,0.303,0.167,0.101,�k��,7.9,��
2018/01/20,21:30,0.335,0.204,0.334,0.316,0.303,0.167,0.100,�k��,8.4,��
2018/01/20,21:40,0.334,0.204,0.335,0.316,0.303,0.168,0.100,�k��,9.5,��
2018/01/20,21:50,0.334,0.204,0.335,0.316,0.303,0.167,0.100,���k��,8.6,��
2018/01/20,22:00,0.336,0.204,0.335,0.317,0.303,0.167,0.100,���k��,8.8,��
2018/01/20,22:10,0.336,0.202,0.336,0.317,0.303,0.167,0.100,���k��,9.7,��
2018/01/20,22:20,0.335,0.203,0.334,0.317,0.303,0.166,0.100,���k��,9.6,��
2018/01/20,22:30,0.335,0.203,0.335,0.316,0.304,0.167,0.100,�k��,8.7,��
2018/01/20,22:40,0.336,0.204,0.336,0.317,0.303,0.167,0.100,���k��,9.0,��
2018/01/20,22:50,0.335,0.203,0.334,0.316,0.303,0.167,0.100,���k��,9.2,��
2018/01/20,23:00,0.336,0.204,0.336,0.317,0.304,0.168,0.101,�k��,8.6,��
2018/01/20,23:10,0.335,0.204,0.334,0.316,0.304,0.168,0.100,���k��,7.4,��
2018/01/20,23:20,0.336,0.204,0.335,0.317,0.303,0.168,0.100,�k��,8.7,��
2018/01/20,23:30,0.335,0.205,0.335,0.316,0.303,0.167,0.101,�k��,11.2,��
2018/01/20,23:40,0.335,0.204,0.338,0.316,0.302,0.167,0.100,�k��,10.6,��
2018/01/20,23:50,0.337,0.204,0.336,0.317,0.303,0.167,0.100,�k��,12.0,��
